Moab, UT

4:05 AM MDT on October 16, 2019 (GMT -0600)
Canyonlands

Weather History for KCNY - August, 2019

Change the Weather History Date:

Monday, August 26, 2019

  Actual Average Record
Temperature  
Mean Temperature 82 °F 74 °F  
Max Temperature 96 °F 90 °F 106 °F (1985)
Min Temperature 67 °F 59 °F 47 °F (1989)
Degree Days  
Heating Degree Days 0 0  
Month to date heating degree days 0 0  
Since 1 June heating degree days 23 17  
Since 1 July heating degree days 0 0  
Cooling Degree Days 17 9  
Month to date cooling degree days 411 329  
Year to date cooling degree days 1184 1122  
Since 1 June cooling degree days 1169 1058  
Growing Degree Days 32 (Base 50)    
Moisture  
Dew Point 30 °F    
Average Humidity 17    
Maximum Humidity 26    
Minimum Humidity 8    
Precipitation  
Precipitation 0.00 in 0.02 in 0.84 in (1988)
Month to date precipitation 0.02 0.68  
Year to date precipitation 6.17 5.22  
Sea Level Pressure  
Sea Level Pressure 29.77 in    
Wind  
Wind Speed 10 mph (WNW)    
Max Wind Speed 23 mph    
Max Gust Speed 31 mph    
Visibility 10 miles    
Events      
T = Trace of Precipitation, MM = Missing Value Source: NWS Daily Summary

Daily Weather History Graph

Daily Weather History Graph

Search for Another Location

Airport or City:

Astronomy

Aug. 26, 2019 Rise Set
Actual Time 6:42 AM MDT 7:58 PM MDT
Civil Twilight 6:14 AM MDT 8:25 PM MDT
Nautical Twilight 5:41 AM MDT 8:58 PM MDT
Astronomical Twilight 5:07 AM MDT 9:33 PM MDT
Moon 2:13 AM MDT (8/26) 5:22 PM MDT (8/26)
Length of Visible Light 14h 10m
Length of Day
13h 15m
Waning Crescent, 19% of the Moon is Illuminated
Aug 26
Waning Crescent
Aug 30
New
Sep 5
First Quarter
Sep 13
Full
Sep 21
Last Quarter

Hourly Weather History & Observations

Time (MDT) Temp. Dew Point Humidity Pressure Visibility Wind Dir Wind Speed Gust Speed Precip Events Conditions
12:53 AM 73.0 °F 30.9 °F 21% 29.72 in 10.0 mi Calm Calm - N/A   Clear
1:53 AM 70.0 °F 30.9 °F 24% 29.73 in 10.0 mi WSW 6.9 mph - N/A   Clear
2:53 AM 75.0 °F 32.0 °F 21% 29.72 in 10.0 mi West 4.6 mph - N/A   Clear
3:53 AM 71.1 °F 30.9 °F 23% 29.74 in 10.0 mi North 4.6 mph - N/A   Clear
4:53 AM 69.1 °F 30.9 °F 24% 29.75 in 10.0 mi Calm Calm - N/A   Clear
5:53 AM 68.0 °F 32.0 °F 26% 29.76 in 10.0 mi NW 5.8 mph - N/A   Clear
6:53 AM 68.0 °F 32.0 °F 26% 29.79 in 10.0 mi Calm Calm - N/A   Clear
7:53 AM 73.9 °F 33.1 °F 22% 29.81 in 10.0 mi NE 4.6 mph - N/A   Clear
8:53 AM 82.0 °F 36.0 °F 19% 29.82 in 10.0 mi WNW 16.1 mph - N/A   Clear
9:53 AM 87.1 °F 35.1 °F 16% 29.82 in 10.0 mi NW 15.0 mph - N/A   Clear
10:53 AM 89.1 °F 33.1 °F 14% 29.82 in 10.0 mi NW 15.0 mph 27.6 mph N/A   Clear
11:53 AM 89.1 °F 32.0 °F 13% 29.83 in 10.0 mi West 11.5 mph 20.7 mph N/A   Clear
12:53 PM 91.9 °F 32.0 °F 12% 29.81 in 10.0 mi WNW 15.0 mph 23.0 mph N/A   Clear
1:53 PM 93.9 °F 30.9 °F 11% 29.80 in 10.0 mi West 15.0 mph 25.3 mph N/A   Clear
2:53 PM 95.0 °F 28.9 °F 10% 29.76 in 10.0 mi NW 15.0 mph 23.0 mph N/A   Clear
3:53 PM 96.1 °F 27.0 °F 9% 29.75 in 10.0 mi West 15.0 mph 25.3 mph N/A   Clear
4:53 PM 95.0 °F 28.0 °F 9% 29.75 in 10.0 mi West 11.5 mph - N/A   Clear
5:53 PM 95.0 °F 26.1 °F 9% 29.73 in 10.0 mi WNW 8.1 mph - N/A   Clear
6:53 PM 93.9 °F 25.0 °F 8% 29.73 in 10.0 mi West 11.5 mph - N/A   Clear
7:53 PM 88.0 °F 25.0 °F 10% 29.74 in 10.0 mi NW 6.9 mph - N/A   Clear
8:53 PM 81.0 °F 23.0 °F 12% 29.75 in 10.0 mi NW 11.5 mph - N/A   Clear
9:53 PM 79.0 °F 24.1 °F 13% 29.78 in 10.0 mi WNW 13.8 mph - N/A   Clear
10:53 PM 80.1 °F 27.0 °F 14% 29.79 in 10.0 mi WNW 12.7 mph - N/A   Clear
11:53 PM 79.0 °F 26.1 °F 14% 29.80 in 10.0 mi WNW 15.0 mph - N/A   Clear